Retour au catalogue

FORMOSAT 3D

ActifScienceLEO
NORAD 29050·PAYLOAD·🇹🇼 Taiwan

Lancé Apr 15, 2006 depuis Vandenberg Space Force Base

Loading…

Prochains Passages (prochaines 24 heures)

TLE

FraisSource: Space-Track

Époque: Sep 13, 2026, 21:32 UTC

1 29050U 06011D   26256.89787088  .00000866  00000-0  16117-3 0  9999
2 29050  72.0120 120.0878 0041673 123.4278 237.0875 14.67117508 89384

Suivez FORMOSAT 3D en temps réel avec AllMySat

Download on the App Store